カタログに戻る

COSMOS 926

運用中軍事PO
NORAD 10137·PAYLOAD·🇷🇺 Russia

打ち上げ Jul 8, 1977 から Plesetsk Cosmodrome

Loading…

次のパス (今後24時間)

TLE

最新Source: Space-Track

元期: Sep 14, 2026, 13:59 UTC

1 10137U 77062A   26257.58323744  .00000043  00000-0  30353-4 0  9997
2 10137  82.9404 301.7163 0033679 119.5827  34.3295 13.72581632462481

AllMySatでCOSMOS 926をリアルタイム追跡

Download on the App Store